カタログに戻る

COSMOS 1275 DEB

運用中PO
NORAD 12768·DEBRIS·🇷🇺 Russia

打ち上げ Jun 4, 1981 から Plesetsk Cosmodrome

Loading…

次のパス (今後24時間)

TLE

最新Source: Space-Track

元期: Sep 14, 2026, 19:48 UTC

1 12768U 81053DM  26257.82553839  .00000452  00000-0  36560-3 0  9990
2 12768  82.9315  32.5232 0049014 213.6726 309.3998 13.87629555272021

AllMySatでCOSMOS 1275 DEBをリアルタイム追跡

Download on the App Store